TimeEDT,TemperatureF,Dew PointF,Humidity,Sea Level PressureIn,VisibilityMPH,Wind Direction,Wind SpeedMPH,Gust SpeedMPH,PrecipitationIn,Events,Conditions,WindDirDegrees,DateUTC
12:15 AM,37.4,37.4,100,29.77,10.0,Calm,Calm,-,N/A,,Clear,0,2012-11-02 04:15:00
12:35 AM,35.6,35.6,100,29.77,10.0,Calm,Calm,-,N/A,,Clear,0,2012-11-02 04:35:00
12:55 AM,35.6,35.6,100,29.78,8.0,Calm,Calm,-,N/A,,Clear,0,2012-11-02 04:55:00
1:15 AM,35.6,33.8,93,29.78,1.0,Calm,Calm,-,N/A,,Clear,0,2012-11-02 05:15:00
1:35 AM,35.6,35.6,100,29.78,7.0,Calm,Calm,-,N/A,,Clear,0,2012-11-02 05:35:00
1:55 AM,33.8,33.8,100,29.78,10.0,Calm,Calm,-,N/A,,Clear,0,2012-11-02 05:55:00
2:15 AM,35.6,35.6,100,29.78,10.0,Calm,Calm,-,N/A,,Clear,0,2012-11-02 06:15:00
2:35 AM,33.8,33.8,100,29.78,10.0,Calm,Calm,-,N/A,,Clear,0,2012-11-02 06:35:00
2:55 AM,33.8,33.8,100,29.78,10.0,Calm,Calm,-,N/A,,Clear,0,2012-11-02 06:55:00
3:15 AM,33.8,33.8,100,29.78,7.0,Calm,Calm,-,N/A,,Clear,0,2012-11-02 07:15:00
3:35 AM,33.8,33.8,100,29.77,10.0,Calm,Calm,-,N/A,,Clear,0,2012-11-02 07:35:00
3:55 AM,33.8,33.8,100,29.77,10.0,Calm,Calm,-,N/A,,Clear,0,2012-11-02 07:55:00
4:15 AM,33.8,33.8,100,29.77,10.0,Calm,Calm,-,N/A,,Partly Cloudy,0,2012-11-02 08:15:00
4:35 AM,35.6,35.6,100,29.76,10.0,Calm,Calm,-,N/A,,Partly Cloudy,0,2012-11-02 08:35:00
4:55 AM,33.8,33.8,100,29.76,10.0,Calm,Calm,-,N/A,,Partly Cloudy,0,2012-11-02 08:55:00
5:15 AM,33.8,33.8,100,29.76,10.0,Calm,Calm,-,N/A,,Scattered Clouds,0,2012-11-02 09:15:00
5:35 AM,35.6,35.6,100,29.77,10.0,Calm,Calm,-,N/A,,Mostly Cloudy,0,2012-11-02 09:35:00
5:55 AM,33.8,33.8,100,29.77,10.0,Calm,Calm,-,N/A,,Partly Cloudy,0,2012-11-02 09:55:00
6:15 AM,33.8,33.8,100,29.77,10.0,Calm,Calm,-,N/A,,Clear,0,2012-11-02 10:15:00
6:35 AM,32.0,30.2,93,29.77,10.0,Calm,Calm,-,N/A,,Partly Cloudy,0,2012-11-02 10:35:00
6:50 AM,33.8,32.0,93,29.78,10.0,Calm,Calm,-,N/A,,Scattered Clouds,0,2012-11-02 10:50:00
7:50 AM,33.8,33.8,100,29.78,10.0,Calm,Calm,-,N/A,,Partly Cloudy,0,2012-11-02 11:50:00
8:45 AM,35.6,35.6,100,29.79,10.0,Calm,Calm,-,N/A,,Clear,0,2012-11-02 12:45:00
9:45 AM,39.2,37.4,93,29.80,10.0,Calm,Calm,-,N/A,,Clear,0,2012-11-02 13:45:00
11:50 AM,51.8,33.8,50,29.81,10.0,WNW,11.5,-,N/A,,Clear,300,2012-11-02 15:50:00
1:45 PM,53.6,30.2,41,29.79,10.0,NW,17.3,24.2,N/A,,Mostly Cloudy,320,2012-11-02 17:45:00
2:50 PM,51.8,30.2,44,29.80,10.0,NW,11.5,25.3,N/A,,Mostly Cloudy,320,2012-11-02 18:50:00
4:50 PM,50.0,30.2,47,29.84,10.0,NW,12.7,19.6,N/A,,Mostly Cloudy,320,2012-11-02 20:50:00
8:50 PM,46.4,30.2,53,29.92,10.0,Calm,Calm,-,N/A,,Overcast,0,2012-11-03 00:50:00
9:55 PM,46.4,30.2,53,29.94,10.0,NW,13.8,19.6,N/A,,Overcast,310,2012-11-03 01:55:00
10:15 PM,46.4,32.0,57,29.94,10.0,WNW,12.7,-,N/A,,Overcast,300,2012-11-03 02:15:00
10:35 PM,46.4,30.2,53,29.95,10.0,NW,6.9,-,N/A,,Overcast,320,2012-11-03 02:35:00
10:55 PM,46.4,32.0,57,29.95,10.0,NW,4.6,-,N/A,,Overcast,310,2012-11-03 02:55:00
11:15 PM,46.4,32.0,57,29.95,10.0,NW,11.5,-,N/A,,Overcast,320,2012-11-03 03:15:00
11:35 PM,46.4,30.2,53,29.95,10.0,NW,11.5,19.6,N/A,,Overcast,320,2012-11-03 03:35:00
11:55 PM,46.4,30.2,53,29.95,10.0,NW,11.5,20.7,N/A,,Overcast,310,2012-11-03 03:55:00